RH
31 28 23 20 19 17 19 20 19 22 22 22 23 31 34 16 33 39 41 40 28 22 14 15 15 13 11 9 9 9 9 9 8 7 7 7 6 6 5 5 4 3 2 2
26 26 23 16 13 18 17 17 20 22 19 28 24 26 32 36 36 39 40 43 44 26 20 18 17 17 15 12 11 10 10 10 10 8 8 8 8 8 8 7 6 6 5 4
26 31 18 9 17 15 14 14 19 17 20 24 21 23 29 34 37 39 42 43 44 34 24 22 22 20 19 16 14 13 12 11 11 10 10 10 10 15 10 9 8 8 7 7
24 18 10 20 18 17 18 19 19 20 18 15 20 15 26 30 35 40 41 26 36 38 32 31 27 25 24 22 18 15 14 13 12 12 12 12 12 13 12 12 11 10 9 8
12 11 11 20 21 19 23 18 20 19 18 17 19 14 15 24 29 34 34 28 32 40 31 31 32 29 26 25 22 19 17 16 16 15 14 15 16 16 15 15 14 13 12 12
9 9 20 21 12 10 9 22 23 22 19 19 15 17 18 20 21 29 36 42 48 44 37 35 34 34 30 28 25 22 20 19 18 18 18 17 18 19 20 20 20 18 17 16
16 15 12 14 24 19 26 26 32 26 25 26 17 17 13 22 20 24 29 40 48 46 34 34 38 39 34 30 28 27 25 25 25 23 23 23 23 24 24 25 24 24 23 22
23 21 16 15 28 24 26 28 54 46 21 16 18 12 22 26 16 10 27 37 48 47 34 37 47 47 41 32 31 31 29 31 35 32 31 30 29 28 27 30 33 30 29 26
21 27 14 14 16 25 27 35 35 35 28 14 8 14 18 12 9 10 11 35 47 48 39 44 58 51 41 43 40 34 36 34 34 34 34 33 35 38 39 39 38 41 40 39
21 28 13 15 15 16 33 35 30 41 96 43 11 11 13 25 22 11 10 13 43 40 44 52 61 62 56 56 38 35 37 37 35 36 38 39 40 41 42 44 45 46 44 41
12 12 19 14 13 27 19 30 30 40 38 32 17 12 14 20 24 20 12 10 19 25 44 55 63 70 55 36 35 37 38 40 39 39 41 41 40 42 44 45 46 47 42 36
14 16 13 15 18 18 34 31 34 20 24 32 28 21 16 12 7 8 25 9 13 27 53 61 66 53 37 34 36 38 38 40 41 43 45 45 43 45 48 49 46 38 31 26
14 23 26 32 15 11 13 13 26 33 34 33 27 24 20 14 8 8 10 10 17 38 55 35 29 33 34 36 38 40 40 42 45 47 50 50 49 53 52 43 35 29 25 23
15 30 27 32 42 14 9 6 7 16 24 27 21 21 25 19 10 9 11 11 15 19 25 23 26 34 36 39 40 41 43 47 49 51 52 55 55 48 39 32 26 22 18 13
17 14 15 11 16 11 12 6 6 9 7 28 17 16 17 26 23 12 12 13 15 18 26 31 35 38 40 40 42 44 48 51 50 54 58 55 45 36 28 22 13 7 5 5
17 23 16 14 14 12 12 11 13 8 8 26 25 19 21 27 23 16 15 16 17 21 25 32 39 39 41 43 44 51 52 56 61 58 52 43 30 21 11 6 5 4 4 4
16 18 20 34 26 24 24 8 12 20 12 15 26 23 30 31 25 20 22 23 21 23 28 33 38 41 42 49 51 58 64 63 58 51 36 24 11 6 4 4 4 4 4 4
28 23 27 22 18 55 20 12 11 20 28 26 19 31 42 38 30 30 22 20 25 30 34 36 41 49 52 59 64 65 66 63 46 29 15 6 4 4 4 4 4 4 3 4
30 42 26 26 42 25 24 13 8 10 23 22 23 39 21 24 19 19 23 29 34 36 42 47 51 61 64 66 70 71 60 35 22 8 5 4 4 4 4 4 5 8 16 27
30 35 45 26 61 58 30 16 9 10 22 15 13 24 14 16 24 45 35 34 38 43 50 60 64 65 71 74 72 55 32 14 5 4 4 4 4 4 7 21 39 72 71 80
34 35 34 40 42 32 28 14 11 23 43 24 14 17 19 30 42 44 47 43 48 54 60 64 70 75 78 71 48 27 8 4 4 4 4 4 7 37 77 91 100 100 100 97
22 34 31 50 58 43 21 19 20 26 28 16 17 24 28 28 34 40 47 54 61 64 69 75 78 79 66 39 14 5 4 4 4 4 4 10 61 100 100 100 100 100 100 100
24 26 54 25 41 19 19 12 14 15 15 19 23 26 30 36 42 51 58 64 68 76 82 83 77 53 26 6 4 4 4 4 5 7 32 95 100 100 100 100 100 100 100 98
21 21 22 23 21 20 19 19 19 19 20 21 27 33 36 42 53 59 64 71 80 84 81 68 38 13 4 4 4 4 5 9 32 88 100 100 100 100 100 100 100 97 93 76
28 23 25 26 23 24 25 24 22 23 25 28 32 39 46 56 63 69 76 84 85 78 52 24 5 4 4 4 3 8 17 37 99 100 100 100 100 100 100 100 93 93 97 75
26 28 31 49 41 28 24 24 28 31 33 36 44 52 59 67 73 84 86 82 69 39 10 5 4 4 4 3 3 6 35 100 100 100 100 100 100 100 100 100 94 70 45 56
Wind_Speed
7 15 14 10 9 5 15 14 13 10 10 7 9 13 14 13 13 12 10 8 6 5 5 6 9 12 14 13 14 14 13 12 12 11 11 11 12 12 13 16 18 17 16 15
13 12 19 11 9 12 14 14 13 9 10 7 10 12 14 15 14 14 12 11 9 9 7 7 8 9 10 11 12 13 13 13 13 12 12 11 11 12 14 15 15 17 18 17
10 11 14 7 8 12 13 10 11 7 9 7 10 12 17 17 16 16 15 13 13 12 12 10 9 10 10 11 12 13 13 14 14 14 14 14 14 15 15 16 16 16 16 16
11 14 12 12 11 7 7 10 8 10 9 4 11 3 20 21 20 19 19 19 16 14 12 11 11 10 10 11 13 13 13 13 14 14 15 15 15 15 15 16 17 16 16 17
12 12 10 11 11 12 7 8 6 7 5 3 9 8 10 20 22 23 21 20 19 17 16 14 13 13 13 14 14 14 15 16 16 15 16 15 15 16 17 17 18 20 19 19
15 20 18 19 15 12 9 6 4 3 4 8 8 11 13 18 19 19 21 21 20 19 19 18 16 15 16 14 14 14 15 17 18 18 18 18 18 17 17 18 19 20 21 22
13 18 13 16 10 9 6 9 2 4 4 3 5 7 4 9 9 14 17 21 21 20 21 20 20 17 14 14 13 14 16 17 19 19 19 19 18 18 19 20 22 23 24 25
12 6 13 16 13 6 10 10 4 5 3 3 6 8 6 9 10 11 13 18 20 19 20 19 17 14 14 14 14 14 15 17 16 18 19 18 18 19 20 23 25 26 28 29
12 6 20 17 21 12 11 8 9 4 7 7 14 8 10 13 12 11 10 14 19 19 19 17 15 17 14 14 15 15 16 18 19 20 21 21 22 23 25 26 28 31 33 34
8 5 11 21 19 21 13 13 5 7 2 4 8 9 5 10 11 13 12 12 18 19 19 17 15 15 15 15 17 19 19 21 24 24 24 24 25 27 29 32 34 36 37 38
18 11 6 15 20 15 22 14 10 8 6 4 5 3 9 9 10 12 13 12 16 17 18 16 15 14 21 21 22 23 23 25 27 28 29 30 31 32 34 37 39 41 42 42
24 12 9 10 21 25 19 16 17 10 7 10 9 10 10 14 16 15 13 12 15 17 17 15 19 23 24 24 25 28 27 28 30 31 33 34 36 38 41 44 45 45 45 43
23 12 7 4 14 20 27 27 27 26 14 15 8 7 12 14 17 17 17 15 16 15 20 24 26 26 27 27 28 31 32 32 32 34 36 39 40 43 46 47 47 46 44 44
20 19 13 13 7 7 22 29 28 30 17 19 26 21 15 18 19 20 19 19 20 20 25 26 27 28 29 30 31 33 34 34 34 36 39 43 46 48 49 48 45 44 44 44
23 22 24 24 17 13 12 13 18 31 30 19 15 15 13 18 21 20 20 20 21 21 25 28 29 30 30 31 33 34 35 35 37 39 43 47 49 48 45 44 43 43 43 44
28 18 20 20 23 24 20 19 22 22 24 29 25 24 15 18 24 20 19 21 21 22 24 27 29 29 30 31 32 33 35 37 40 44 46 47 45 44 45 45 46 47 48 49
25 27 19 9 14 15 18 29 29 27 28 24 26 18 15 21 24 20 21 22 22 23 23 25 27 28 30 30 31 34 37 41 45 46 44 43 44 46 46 48 49 51 52 53
17 21 19 12 5 5 16 21 21 24 23 21 19 18 16 20 20 20 21 21 22 22 22 24 26 26 27 30 33 36 40 44 45 44 44 45 47 49 51 52 53 53 53 53
16 16 10 7 11 17 17 19 15 11 11 16 16 17 18 21 22 19 20 20 20 20 21 22 23 26 30 33 36 40 43 43 44 45 47 48 51 53 53 53 52 51 50 50
18 20 14 11 5 4 7 13 10 11 9 15 14 19 19 15 14 17 16 17 18 19 20 23 25 29 34 38 42 44 42 43 45 48 50 52 53 53 50 49 47 44 45 44
22 23 23 19 10 10 19 19 15 6 9 11 9 13 13 11 17 18 17 17 18 20 22 25 29 33 38 42 43 42 43 45 48 50 51 51 50 45 41 40 37 40 39 41
14 15 18 16 11 12 19 16 11 13 11 11 11 11 13 15 14 16 18 18 19 23 25 29 33 37 39 40 42 43 45 47 49 50 50 48 42 36 36 37 40 38 39 39
15 15 8 12 7 12 10 9 7 12 14 14 14 15 15 15 16 17 18 20 23 25 29 34 36 37 37 39 42 45 46 48 49 48 44 36 35 36 34 39 37 39 38 39
21 23 23 21 21 22 20 17 16 16 17 16 17 18 17 17 17 18 21 25 27 30 34 36 35 36 38 41 43 45 46 46 45 38 34 34 35 35 36 37 36 36 39 40
22 19 22 23 25 21 20 19 18 19 18 18 19 19 18 17 18 22 24 27 29 32 34 34 35 37 40 43 44 44 44 41 34 34 36 36 33 35 36 34 34 39 39 38
18 20 17 12 18 16 20 18 18 18 19 20 19 18 18 20 22 23 25 28 31 31 31 34 37 40 43 44 44 43 40 32 35 37 37 36 35 34 32 32 38 41 43 39
Wind_Direction
165 140 153 169 202 129 150 151 151 161 159 159 176 187 179 186 181 184 185 189 207 240 281 304 327 335 335 335 338 341 345 346 344 344 348 349 345 342 343 341 334 330 330 328
151 172 185 186 135 147 150 153 151 148 162 151 175 188 193 192 193 199 199 201 210 232 263 287 300 314 327 335 339 344 343 341 337 336 338 336 339 342 345 340 330 327 327 327
178 193 173 141 140 145 145 166 161 182 163 155 177 206 203 208 205 208 212 212 218 239 254 267 290 310 324 334 341 343 343 342 338 334 334 336 342 341 339 329 325 323 320 317
192 177 160 144 151 154 146 161 156 160 166 230 192 222 206 209 212 217 225 230 229 229 240 266 287 302 317 328 333 335 337 337 339 337 335 335 331 329 328 324 319 315 311 311
177 175 170 167 181 152 201 152 154 173 232 240 223 251 200 200 216 219 224 232 232 232 247 259 280 296 309 318 323 328 330 333 336 336 335 333 329 327 324 324 323 321 319 316
193 183 153 203 187 196 169 153 154 215 243 257 213 230 186 207 219 223 221 218 223 228 242 254 269 280 291 301 312 324 327 329 330 332 331 328 328 328 326 323 321 320 318 316
166 185 195 179 154 169 159 163 207 225 203 274 175 246 276 201 196 215 223 218 216 227 242 253 262 274 284 300 314 322 329 332 330 329 327 327 324 321 321 322 320 318 315 314
173 186 194 195 172 197 194 190 186 244 238 199 191 244 188 207 218 221 205 216 214 222 246 251 254 264 280 294 308 322 329 327 321 319 317 317 317 317 319 323 322 321 318 317
191 186 213 198 199 162 196 209 201 251 271 286 251 214 264 243 233 235 239 207 216 232 243 242 238 259 268 282 298 308 319 315 312 310 311 307 308 312 314 314 315 316 316 316
199 199 210 214 209 204 174 195 202 206 151 245 258 248 245 212 219 225 243 235 217 232 233 228 230 251 261 268 282 295 305 310 306 307 307 306 305 306 308 309 311 311 309 308
225 222 210 215 212 211 216 212 201 205 222 262 282 262 197 191 194 220 236 245 236 241 233 224 226 231 258 273 283 292 299 302 303 302 302 303 305 306 306 306 307 306 306 304
216 218 225 220 224 209 201 223 218 214 223 227 268 269 251 251 246 251 227 259 256 237 222 217 230 250 265 276 284 289 297 297 299 298 299 301 304 306 307 308 307 305 303 302
218 217 186 233 246 230 226 225 214 219 220 227 231 250 257 261 250 237 247 269 251 222 216 244 253 261 269 277 284 288 292 293 295 296 299 302 305 306 306 305 304 303 302 300
212 212 219 228 237 248 228 237 234 225 217 238 235 252 271 273 253 245 261 261 250 251 247 258 264 265 272 279 284 287 289 292 296 299 301 303 304 305 304 303 303 302 302 301
215 228 233 239 252 253 252 246 240 234 241 226 258 252 269 249 260 252 255 254 251 256 255 258 262 268 273 279 283 286 290 295 298 300 301 301 302 303 302 302 301 302 301 300
224 233 245 253 252 253 253 251 254 251 245 244 252 255 265 244 256 259 256 254 255 254 258 261 265 270 275 280 284 289 292 296 298 300 301 302 303 304 305 307 307 306 305 303
232 231 240 247 256 263 268 256 250 253 255 252 242 257 256 244 265 264 254 252 257 258 259 264 269 274 279 284 287 292 296 299 301 303 305 306 307 307 308 308 308 307 306 305
225 231 232 249 268 246 257 262 258 245 245 249 248 235 231 243 255 247 252 255 257 263 266 268 271 277 283 288 292 297 301 303 306 308 309 309 310 311 311 311 310 308 307 307
222 221 222 221 229 267 276 267 264 246 249 251 249 240 245 242 254 257 254 256 259 265 269 272 279 286 288 292 298 302 305 308 310 310 312 314 314 313 312 311 311 311 312 312
230 219 221 216 230 255 254 268 267 260 258 264 254 243 255 260 253 266 260 263 269 270 274 282 288 291 294 300 304 308 310 311 312 312 314 314 313 312 312 312 314 314 314 314
213 219 223 228 240 262 263 271 265 242 259 273 258 246 250 233 232 248 264 269 272 280 286 289 292 296 301 306 309 312 313 313 313 314 312 312 313 312 313 312 312 312 315 311
226 215 227 223 222 252 266 262 233 243 256 267 252 242 240 256 261 261 265 272 280 285 291 295 298 302 306 309 310 312 313 312 311 311 311 312 312 312 312 309 311 314 314 311
231 221 229 224 237 241 255 259 252 248 258 256 254 255 263 266 268 266 273 283 289 292 297 299 303 306 307 309 310 312 312 311 311 311 312 312 311 314 305 312 312 315 313 316
249 256 249 251 257 259 260 260 262 261 258 262 259 267 272 270 271 279 286 290 293 298 300 302 305 307 309 311 311 311 312 312 311 311 311 312 312 306 309 310 313 314 313 316
256 261 254 249 259 265 265 264 260 261 265 267 266 267 272 274 278 284 288 290 295 299 299 304 307 310 311 312 312 312 312 312 310 309 311 311 307 305 308 313 316 314 315 316
258 259 252 249 261 262 265 258 256 263 267 268 264 266 269 273 280 285 289 294 297 298 303 308 311 312 313 312 313 313 312 311 308 308 309 305 300 305 313 312 312 322 325 318